�������l�o���
Date,Time,MP-1(��Sv/h),MP-2(��Sv/h),MP-3(��Sv/h),MP-4(��Sv/h),MP-5(��Sv/h),MP-6(��Sv/h),MP-7(��Sv/h),MP-8(��Sv/h),����,����(m/s),���J
2023/11/06,00:00,0.528,0.803,0.495,1.008,0.731,0.320,0.572,0.532,�k�k��,5.7,��
2023/11/06,00:10,0.525,0.805,0.497,1.008,0.731,0.319,0.574,0.531,�k�k��,5.3,��
2023/11/06,00:20,0.529,0.803,0.495,1.011,0.729,0.317,0.574,0.531,�k�k��,5.1,��
2023/11/06,00:30,0.528,0.801,0.496,1.011,0.730,0.320,0.574,0.533,�k�k��,5.0,��
2023/11/06,00:40,0.528,0.802,0.496,1.009,0.730,0.318,0.574,0.531,�k�k��,4.9,��
2023/11/06,00:50,0.529,0.803,0.495,1.009,0.730,0.319,0.573,0.533,�k,4.6,��
2023/11/06,01:00,0.528,0.803,0.497,1.009,0.730,0.319,0.575,0.532,�k,4.9,��
2023/11/06,01:10,0.527,0.800,0.496,1.010,0.731,0.318,0.574,0.532,�k�k��,5.4,��
2023/11/06,01:20,0.528,0.803,0.495,1.009,0.729,0.318,0.572,0.532,�k�k��,5.5,��
2023/11/06,01:30,0.528,0.802,0.495,1.011,0.729,0.319,0.573,0.531,�k�k��,4.9,��
2023/11/06,01:40,0.528,0.803,0.495,1.010,0.730,0.319,0.574,0.533,�k�k��,4.6,��
2023/11/06,01:50,0.529,0.802,0.495,1.009,0.730,0.317,0.572,0.532,�k�k��,4.1,��
2023/11/06,02:00,0.528,0.802,0.496,1.009,0.730,0.319,0.573,0.532,�k�k��,4.3,��
2023/11/06,02:10,0.529,0.802,0.494,1.010,0.730,0.320,0.574,0.533,�k�k��,4.1,��
2023/11/06,02:20,0.528,0.803,0.495,1.009,0.732,0.318,0.573,0.532,�k�k��,3.6,��
2023/11/06,02:30,0.528,0.801,0.498,1.010,0.728,0.319,0.574,0.531,�k�k��,2.9,��
2023/11/06,02:40,0.530,0.804,0.496,1.012,0.730,0.318,0.573,0.533,�k�k��,2.8,��
2023/11/06,02:50,0.529,0.804,0.496,1.010,0.727,0.320,0.572,0.532,-,CALM,��
2023/11/06,03:00,0.529,0.802,0.497,1.008,0.730,0.319,0.572,0.533,��,0.6,��
2023/11/06,03:10,0.529,0.802,0.497,1.009,0.731,0.320,0.573,0.532,�k��,1.4,��
2023/11/06,03:20,0.528,0.802,0.494,1.009,0.730,0.319,0.572,0.533,�k�k��,0.6,��
2023/11/06,03:30,0.528,0.802,0.495,1.010,0.732,0.319,0.572,0.531,-,CALM,��
2023/11/06,03:40,0.528,0.803,0.495,1.009,0.730,0.320,0.574,0.533,�k,0.9,��
2023/11/06,03:50,0.528,0.802,0.494,1.013,0.730,0.319,0.573,0.533,-,CALM,��
2023/11/06,04:00,0.529,0.802,0.497,1.008,0.728,0.318,0.572,0.533,���쓌,0.6,��
2023/11/06,04:10,0.529,0.801,0.497,1.010,0.730,0.320,0.573,0.531,-,CALM,��
2023/11/06,04:20,0.529,0.801,0.497,1.009,0.731,0.319,0.573,0.533,��,1.2,��
2023/11/06,04:30,0.527,0.803,0.494,1.010,0.729,0.320,0.575,0.532,��,2.0,��
2023/11/06,04:40,0.529,0.801,0.497,1.009,0.729,0.319,0.573,0.531,��쓌,3.0,��
2023/11/06,04:50,0.529,0.802,0.496,1.011,0.729,0.319,0.571,0.532,��쓌,2.3,��
2023/11/06,05:00,0.529,0.800,0.495,1.009,0.728,0.319,0.573,0.533,�쓌,2.3,��
2023/11/06,05:10,0.528,0.804,0.494,1.009,0.728,0.319,0.573,0.532,��쓌,2.2,��
2023/11/06,05:20,0.526,0.803,0.495,1.008,0.727,0.319,0.572,0.533,��쓌,4.5,��
2023/11/06,05:30,0.529,0.800,0.497,1.009,0.729,0.319,0.572,0.533,��,3.6,��
2023/11/06,05:40,0.528,0.800,0.496,1.010,0.729,0.319,0.573,0.534,��쐼,2.8,��
2023/11/06,05:50,0.528,0.802,0.495,1.010,0.730,0.318,0.573,0.532,��,3.0,��
2023/11/06,06:00,0.527,0.802,0.495,1.011,0.729,0.319,0.573,0.533,��쓌,3.1,��
2023/11/06,06:10,0.528,0.801,0.494,1.008,0.730,0.319,0.573,0.532,��쓌,4.1,��
2023/11/06,06:20,0.528,0.801,0.495,1.011,0.729,0.318,0.572,0.533,��쓌,4.0,��
2023/11/06,06:30,0.529,0.802,0.495,1.012,0.729,0.319,0.573,0.533,��쓌,3.8,��
2023/11/06,06:40,0.527,0.802,0.496,1.011,0.730,0.318,0.572,0.532,��쓌,3.8,��
2023/11/06,06:50,0.529,0.801,0.496,1.012,0.729,0.319,0.573,0.534,��쓌,5.2,��
2023/11/06,07:00,0.529,0.802,0.496,1.010,0.730,0.320,0.572,0.533,��쓌,7.5,��
2023/11/06,07:10,0.529,0.802,0.497,1.009,0.729,0.318,0.573,0.532,��쓌,7.9,��
2023/11/06,07:20,0.527,0.802,0.496,1.010,0.729,0.319,0.573,0.532,��쓌,8.2,��
2023/11/06,07:30,0.529,0.802,0.497,1.010,0.728,0.318,0.573,0.534,��쓌,10.2,��
2023/11/06,07:40,0.529,0.801,0.495,1.010,0.727,0.319,0.573,0.533,��쓌,8.5,��
2023/11/06,07:50,0.529,0.800,0.496,1.009,0.729,0.318,0.572,0.533,��쓌,8.9,��
2023/11/06,08:00,0.527,0.801,0.495,1.007,0.730,0.319,0.573,0.533,��,8.6,��
2023/11/06,08:10,0.529,0.802,0.496,1.009,0.730,0.318,0.572,0.533,��쓌,7.7,��
2023/11/06,08:20,0.529,0.800,0.498,1.011,0.728,0.318,0.571,0.532,��,6.3,��
2023/11/06,08:30,0.527,0.796,0.496,1.010,0.726,0.317,0.574,0.532,��,8.4,��
2023/11/06,08:40,0.527,0.796,0.496,1.010,0.729,0.317,0.572,0.534,��,9.1,��
2023/11/06,08:50,0.529,0.798,0.497,1.011,0.728,0.318,0.572,0.531,��,8.4,��
2023/11/06,09:00,0.528,0.796,0.498,1.008,0.729,0.316,0.572,0.531,��,10.3,��
2023/11/06,09:10,0.528,0.800,0.497,1.010,0.726,0.317,0.574,0.531,��,9.7,��
2023/11/06,09:20,0.528,0.800,0.497,1.008,0.730,0.318,0.574,0.533,��,10.0,��
2023/11/06,09:30,0.528,0.800,0.496,1.009,0.729,0.317,0.574,0.532,��,9.8,��
2023/11/06,09:40,0.527,0.799,0.497,1.011,0.726,0.315,0.574,0.532,��,10.6,��
2023/11/06,09:50,0.528,0.800,0.496,1.010,0.727,0.318,0.573,0.532,��,10.3,��
2023/11/06,10:00,0.529,0.797,0.496,1.011,0.726,0.317,0.571,0.533,��쓌,11.0,��
2023/11/06,10:10,0.529,0.801,0.495,1.011,0.729,0.318,0.573,0.531,��,10.2,��
2023/11/06,10:20,0.530,0.799,0.495,1.009,0.729,0.319,0.574,0.531,��,8.0,��
2023/11/06,10:30,0.530,0.801,0.493,1.010,0.727,0.318,0.573,0.530,��,8.2,��
2023/11/06,10:40,0.529,0.801,0.493,1.010,0.728,0.319,0.575,0.533,��,10.2,��
2023/11/06,10:50,0.529,0.800,0.493,1.010,0.728,0.318,0.574,0.531,��,10.0,��
2023/11/06,11:00,0.531,0.797,0.495,1.011,0.727,0.317,0.574,0.531,��,12.7,��
2023/11/06,11:10,0.531,0.800,0.496,1.013,0.727,0.319,0.574,0.531,��쐼,11.6,��
2023/11/06,11:20,0.532,0.798,0.494,1.010,0.728,0.317,0.574,0.531,��,11.1,��
2023/11/06,11:30,0.530,0.801,0.497,1.010,0.730,0.319,0.575,0.530,��,9.1,��
2023/11/06,11:40,0.531,0.802,0.496,1.011,0.728,0.319,0.575,0.532,��,9.9,��
2023/11/06,11:50,0.532,0.800,0.496,1.011,0.730,0.318,0.574,0.532,��,11.1,��
2023/11/06,12:00,0.532,0.801,0.496,1.011,0.729,0.319,0.576,0.531,��,10.9,��
2023/11/06,12:10,0.531,0.801,0.496,1.008,0.729,0.320,0.574,0.532,��,9.8,��
2023/11/06,12:20,0.531,0.803,0.496,1.011,0.730,0.318,0.573,0.531,��,10.3,��
2023/11/06,12:30,0.531,0.802,0.494,1.011,0.728,0.318,0.575,0.531,��,9.2,��
2023/11/06,12:40,0.530,0.802,0.496,1.011,0.730,0.318,0.574,0.531,��쓌,11.6,��
2023/11/06,12:50,0.530,0.801,0.497,1.010,0.731,0.319,0.574,0.533,��,9.5,��
2023/11/06,13:00,0.531,0.801,0.498,1.013,0.729,0.319,0.574,0.531,��,9.3,��
2023/11/06,13:10,0.528,0.800,0.497,1.010,0.731,0.319,0.574,0.531,��,9.9,��
2023/11/06,13:20,0.531,0.802,0.495,1.011,0.729,0.318,0.574,0.533,��쓌,11.0,��
2023/11/06,13:30,0.530,0.800,0.498,1.014,0.731,0.319,0.574,0.532,��쓌,10.6,��
2023/11/06,13:40,0.532,0.800,0.496,1.013,0.732,0.319,0.575,0.533,��,13.0,��
2023/11/06,13:50,0.532,0.800,0.497,1.010,0.729,0.318,0.573,0.533,��,12.2,��
2023/11/06,14:00,0.531,0.801,0.496,1.011,0.729,0.319,0.574,0.530,��쓌,13.3,��
2023/11/06,14:10,0.531,0.802,0.497,1.012,0.730,0.318,0.574,0.531,��쓌,13.3,��
2023/11/06,14:20,0.531,0.801,0.495,1.014,0.730,0.317,0.574,0.532,��쓌,13.0,��
2023/11/06,14:30,0.531,0.801,0.496,1.013,0.728,0.318,0.573,0.532,��,13.0,��
2023/11/06,14:40,0.531,0.800,0.496,1.013,0.729,0.318,0.574,0.531,��쓌,14.1,��
2023/11/06,14:50,0.529,0.802,0.498,1.012,0.729,0.318,0.573,0.531,��쓌,13.0,��
2023/11/06,15:00,0.530,0.800,0.497,1.012,0.729,0.319,0.571,0.530,��쓌,12.0,��
2023/11/06,15:10,0.529,0.801,0.495,1.011,0.730,0.319,0.574,0.534,��쓌,11.4,��
2023/11/06,15:20,0.530,0.800,0.495,1.013,0.730,0.318,0.575,0.531,��쓌,14.1,��
2023/11/06,15:30,0.529,0.801,0.497,1.012,0.729,0.317,0.573,0.532,��쓌,14.1,��
2023/11/06,15:40,0.531,0.802,0.497,1.012,0.730,0.317,0.573,0.533,��쓌,12.8,��
2023/11/06,15:50,0.531,0.799,0.496,1.013,0.729,0.319,0.575,0.532,��쓌,13.8,��
2023/11/06,16:00,0.528,0.803,0.496,1.011,0.730,0.319,0.575,0.533,��쓌,12.1,��
2023/11/06,16:10,0.530,0.801,0.495,1.013,0.729,0.319,0.574,0.533,��쓌,13.0,��
2023/11/06,16:20,0.530,0.803,0.495,1.013,0.730,0.317,0.574,0.533,��,10.3,��
2023/11/06,16:30,0.529,0.803,0.496,1.013,0.730,0.318,0.573,0.532,��,10.9,��
2023/11/06,16:40,0.530,0.801,0.496,1.015,0.729,0.318,0.574,0.534,��,12.4,��
2023/11/06,16:50,0.529,0.803,0.495,1.010,0.728,0.318,0.573,0.534,��,11.6,��
2023/11/06,17:00,0.530,0.801,0.496,1.014,0.729,0.318,0.574,0.534,��,9.8,��
2023/11/06,17:10,0.531,0.801,0.496,1.012,0.729,0.318,0.573,0.533,��,8.6,��
2023/11/06,17:20,0.530,0.803,0.496,1.014,0.731,0.318,0.574,0.533,��,9.7,��
2023/11/06,17:30,0.529,0.803,0.499,1.013,0.730,0.320,0.574,0.533,��,10.5,��
2023/11/06,17:40,0.531,0.801,0.497,1.013,0.729,0.319,0.574,0.535,��,13.0,��
2023/11/06,17:50,0.529,0.801,0.497,1.012,0.730,0.318,0.574,0.534,��,11.6,��
2023/11/06,18:00,0.530,0.802,0.499,1.014,0.730,0.319,0.574,0.534,��,13.3,��
2023/11/06,18:10,0.531,0.802,0.496,1.013,0.729,0.319,0.574,0.532,��,11.4,��
2023/11/06,18:20,0.530,0.803,0.497,1.014,0.729,0.318,0.574,0.533,��,14.1,��
2023/11/06,18:30,0.531,0.804,0.495,1.012,0.730,0.318,0.574,0.533,��,13.8,��
2023/11/06,18:40,0.530,0.803,0.498,1.013,0.728,0.320,0.574,0.534,��,12.2,��
2023/11/06,18:50,0.530,0.803,0.498,1.013,0.729,0.319,0.573,0.534,��,11.8,��
2023/11/06,19:00,0.530,0.802,0.498,1.014,0.729,0.319,0.574,0.533,��,11.0,��
2023/11/06,19:10,0.528,0.802,0.496,1.014,0.729,0.319,0.573,0.532,��,11.8,��
2023/11/06,19:20,0.530,0.801,0.497,1.016,0.731,0.319,0.573,0.533,��쓌,11.8,��
2023/11/06,19:30,0.530,0.804,0.496,1.013,0.729,0.319,0.574,0.534,��,10.5,��
2023/11/06,19:40,0.529,0.802,0.497,1.013,0.731,0.319,0.575,0.533,��,10.0,��
2023/11/06,19:50,0.531,0.801,0.496,1.015,0.729,0.319,0.573,0.534,��,11.6,��
2023/11/06,20:00,0.531,0.803,0.498,1.017,0.729,0.319,0.574,0.532,��,8.9,��
2023/11/06,20:10,0.531,0.802,0.497,1.012,0.730,0.320,0.574,0.532,��,9.1,��
2023/11/06,20:20,0.528,0.801,0.500,1.015,0.729,0.319,0.573,0.533,��,9.4,��
2023/11/06,20:30,0.530,0.802,0.498,1.012,0.729,0.318,0.574,0.534,��,10.2,��
2023/11/06,20:40,0.530,0.804,0.497,1.012,0.729,0.319,0.574,0.534,��,12.5,��
2023/11/06,20:50,0.530,0.803,0.498,1.012,0.731,0.320,0.574,0.535,��,11.6,��
2023/11/06,21:00,0.531,0.802,0.498,1.013,0.732,0.318,0.575,0.536,��,11.7,��
2023/11/06,21:10,0.531,0.804,0.499,1.014,0.733,0.318,0.573,0.534,��,8.2,��
2023/11/06,21:20,0.531,0.802,0.499,1.013,0.731,0.319,0.574,0.533,��,6.9,��
2023/11/06,21:30,0.528,0.804,0.498,1.015,0.731,0.320,0.573,0.534,��,8.4,��
2023/11/06,21:40,0.531,0.802,0.497,1.015,0.729,0.319,0.576,0.533,��,8.6,��
2023/11/06,21:50,0.529,0.803,0.498,1.013,0.731,0.319,0.574,0.534,��,9.9,�L
2023/11/06,22:00,0.531,0.804,0.499,1.014,0.731,0.320,0.575,0.532,��,8.5,�L
2023/11/06,22:10,0.532,0.802,0.497,1.013,0.729,0.320,0.573,0.533,��,8.8,�L
2023/11/06,22:20,0.530,0.803,0.499,1.013,0.730,0.320,0.576,0.533,��,9.5,�L
2023/11/06,22:30,0.530,0.804,0.497,1.015,0.730,0.319,0.575,0.534,��,10.6,�L
2023/11/06,22:40,0.530,0.804,0.498,1.014,0.730,0.320,0.574,0.532,��,9.9,�L
2023/11/06,22:50,0.530,0.802,0.496,1.012,0.731,0.320,0.574,0.532,��,9.2,��
2023/11/06,23:00,0.530,0.801,0.499,1.013,0.731,0.319,0.574,0.533,��,9.2,�L
2023/11/06,23:10,0.530,0.802,0.497,1.013,0.730,0.320,0.574,0.533,��,10.6,�L
2023/11/06,23:20,0.529,0.803,0.498,1.015,0.729,0.320,0.574,0.533,��,9.1,�L
2023/11/06,23:30,0.531,0.801,0.497,1.013,0.730,0.320,0.575,0.533,��,7.5,�L
2023/11/06,23:40,0.529,0.802,0.499,1.015,0.732,0.319,0.576,0.533,��,8.2,��
2023/11/06,23:50,0.531,0.804,0.499,1.014,0.730,0.320,0.575,0.534,��,9.3,��
